QPF
0.02 0.02 0.03 0.04 0.03 0.04 0.04 0.03 0.01 0.01 0.01 0.01 0.01 0.01 0.01 0.01 0.01 0.02 0.02 0.03 0.04 0.06 0.07 0.07 0.05 0.05 0.05 0.04 0.04 0.05 0.04 0.04 0.04 0.03 0.04 0.04 0.05 0.04 0.02 0.02 0.01 0.01 0.01
0.03 0.03 0.03 0.04 0.03 0.03 0.03 0.02 0.02 0.02 0.02 0.02 0.01 0.01 0.01 0.00 0.01 0.01 0.02 0.04 0.03 0.04 0.05 0.06 0.06 0.05 0.05 0.06 0.06 0.06 0.06 0.06 0.05 0.04 0.03 0.04 0.05 0.04 0.04 0.03 0.02 0.01 0.01
0.04 0.05 0.04 0.04 0.03 0.02 0.02 0.02 0.03 0.02 0.02 0.01 0.01 0.01 0.00 0.00 0.01 0.01 0.02 0.04 0.05 0.04 0.04 0.04 0.05 0.05 0.07 0.09 0.09 0.09 0.08 0.06 0.05 0.04 0.03 0.03 0.05 0.04 0.04 0.03 0.03 0.02 0.01
0.06 0.06 0.04 0.04 0.03 0.02 0.02 0.03 0.02 0.02 0.02 0.02 0.01 0.00 0.00 0.01 0.01 0.01 0.02 0.03 0.04 0.04 0.04 0.03 0.04 0.04 0.06 0.08 0.08 0.10 0.09 0.08 0.07 0.07 0.06 0.04 0.03 0.04 0.04 0.04 0.04 0.03 0.02
0.07 0.07 0.06 0.06 0.04 0.03 0.02 0.02 0.01 0.02 0.03 0.03 0.01 0.01 0.00 0.01 0.00 0.01 0.01 0.02 0.03 0.03 0.04 0.03 0.02 0.03 0.05 0.07 0.08 0.09 0.09 0.07 0.07 0.08 0.09 0.08 0.06 0.05 0.05 0.05 0.04 0.04 0.03
0.06 0.06 0.06 0.05 0.04 0.03 0.03 0.03 0.03 0.02 0.02 0.02 0.01 0.01 0.00 0.00 0.01 0.01 0.01 0.02 0.02 0.02 0.02 0.02 0.02 0.02 0.02 0.03 0.03 0.05 0.07 0.07 0.07 0.09 0.10 0.08 0.07 0.08 0.07 0.07 0.06 0.05 0.05
0.06 0.07 0.05 0.05 0.05 0.04 0.06 0.05 0.04 0.03 0.02 0.01 0.02 0.02 0.01 0.00 0.01 0.01 0.01 0.01 0.01 0.01 0.01 0.02 0.02 0.02 0.02 0.01 0.01 0.02 0.02 0.03 0.05 0.07 0.08 0.08 0.07 0.07 0.07 0.06 0.06 0.05 0.05
0.06 0.05 0.06 0.06 0.06 0.06 0.06 0.06 0.05 0.04 0.02 0.01 0.02 0.02 0.02 0.01 0.01 0.00 0.00 0.00 0.00 0.01 0.01 0.01 0.01 0.02 0.02 0.03 0.01 0.00 0.01 0.02 0.02 0.03 0.05 0.05 0.05 0.04 0.05 0.05 0.05 0.05 0.05
0.05 0.05 0.06 0.07 0.06 0.04 0.05 0.05 0.04 0.04 0.03 0.02 0.02 0.02 0.02 0.01 0.00 0.00 0.00 0.00 0.00 0.01 0.01 0.01 0.01 0.02 0.02 0.02 0.02 0.01 0.00 0.01 0.02 0.02 0.03 0.03 0.03 0.03 0.03 0.04 0.05 0.05 0.05
0.06 0.05 0.06 0.06 0.06 0.04 0.04 0.03 0.03 0.03 0.03 0.03 0.03 0.01 0.01 0.01 0.00 0.00 0.00 0.00 0.00 0.00 0.00 0.00 0.00 0.01 0.01 0.01 0.02 0.00 0.00 0.00 0.01 0.01 0.01 0.02 0.02 0.02 0.02 0.03 0.04 0.05 0.07
0.06 0.04 0.04 0.05 0.05 0.05 0.04 0.03 0.03 0.02 0.02 0.03 0.02 0.01 0.01 0.01 0.01 0.01 0.01 0.01 0.01 0.00 0.00 0.00 0.00 0.00 0.00 0.01 0.01 0.00 0.00 0.00 0.00 0.00 0.00 0.01 0.02 0.02 0.02 0.02 0.03 0.04 0.05
0.04 0.03 0.03 0.04 0.05 0.05 0.04 0.03 0.02 0.02 0.02 0.02 0.02 0.01 0.01 0.01 0.01 0.01 0.01 0.01 0.01 0.00 0.00 0.00 0.00 0.00 0.00 0.00 0.00 0.00 0.00 0.00 0.00 0.00 0.00 0.00 0.01 0.01 0.01 0.01 0.01 0.03 0.04
0.03 0.04 0.03 0.04 0.04 0.04 0.03 0.02 0.02 0.01 0.01 0.01 0.02 0.01 0.01 0.01 0.01 0.02 0.02 0.01 0.01 0.00 0.00 0.00 0.00 0.00 0.00 0.00 0.00 0.00 0.00 0.00 0.00 0.00 0.00 0.00 0.00 0.00 0.00 0.00 0.00 0.01 0.01
0.05 0.07 0.06 0.04 0.03 0.02 0.02 0.02 0.02 0.02 0.01 0.02 0.01 0.01 0.01 0.01 0.02 0.02 0.02 0.02 0.01 0.00 0.00 0.00 0.00 0.00 0.00 0.00 0.00 0.00 0.00 0.00 0.00 0.00 0.00 0.00 0.00 0.00 0.00 0.00 0.00 0.00 0.00
0.05 0.07 0.05 0.03 0.03 0.02 0.02 0.02 0.02 0.02 0.02 0.02 0.01 0.02 0.02 0.02 0.01 0.01 0.01 0.01 0.01 0.00 0.00 0.00 0.00 0.00 0.00 0.00 0.00 0.00 0.00 0.00 0.00 0.00 0.00 0.00 0.00 0.00 0.00 0.00 0.00 0.00 0.00
0.04 0.05 0.04 0.03 0.02 0.01 0.01 0.02 0.02 0.02 0.03 0.02 0.02 0.02 0.02 0.01 0.01 0.01 0.00 0.00 0.00 0.00 0.00 0.00 0.00 0.00 0.00 0.00 0.00 0.00 0.00 0.00 0.00 0.00 0.00 0.00 0.00 0.00 0.00 0.00 0.00 0.00 0.00
0.04 0.04 0.02 0.02 0.02 0.02 0.02 0.02 0.02 0.03 0.03 0.02 0.01 0.01 0.01 0.01 0.01 0.00 0.00 0.00 0.00 0.00 0.00 0.00 0.00 0.00 0.00 0.00 0.00 0.00 0.00 0.00 0.00 0.00 0.00 0.00 0.00 0.00 0.00 0.00 0.00 0.00 0.00
0.03 0.04 0.04 0.03 0.02 0.02 0.02 0.03 0.02 0.02 0.03 0.02 0.01 0.01 0.00 0.00 0.00 0.00 0.00 0.00 0.00 0.00 0.00 0.00 0.00 0.00 0.00 0.00 0.00 0.00 0.00 0.00 0.00 0.00 0.00 0.00 0.00 0.00 0.00 0.00 0.00 0.00 0.00
0.03 0.03 0.03 0.02 0.02 0.02 0.02 0.03 0.02 0.02 0.02 0.02 0.02 0.01 0.01 0.00 0.00 0.00 0.00 0.00 0.00 0.00 0.00 0.00 0.00 0.00 0.00 0.00 0.00 0.00 0.00 0.00 0.00 0.00 0.00 0.00 0.00 0.00 0.00 0.00 0.00 0.00 0.00
0.04 0.04 0.03 0.03 0.03 0.02 0.02 0.02 0.02 0.02 0.02 0.01 0.01 0.01 0.01 0.01 0.01 0.01 0.01 0.01 0.01 0.01 0.01 0.01 0.01 0.00 0.00 0.00 0.00 0.00 0.00 0.00 0.00 0.00 0.00 0.00 0.00 0.00 0.00 0.00 0.00 0.00 0.00
0.03 0.04 0.05 0.05 0.04 0.03 0.02 0.01 0.01 0.01 0.02 0.02 0.01 0.01 0.01 0.01 0.01 0.01 0.01 0.01 0.01 0.01 0.01 0.01 0.00 0.00 0.00 0.01 0.01 0.01 0.00 0.00 0.00 0.00 0.00 0.00 0.00 0.00 0.00 0.00 0.00 0.00 0.00
0.04 0.04 0.04 0.04 0.04 0.02 0.01 0.01 0.01 0.01 0.01 0.02 0.02 0.02 0.01 0.00 0.00 0.01 0.00 0.00 0.00 0.01 0.01 0.01 0.01 0.01 0.01 0.01 0.01 0.01 0.00 0.00 0.00 0.00 0.01 0.00 0.00 0.00 0.00 0.00 0.00 0.00 0.00
0.03 0.03 0.03 0.03 0.02 0.02 0.02 0.02 0.01 0.01 0.01 0.01 0.01 0.02 0.01 0.00 0.00 0.00 0.00 0.00 0.01 0.02 0.02 0.03 0.03 0.02 0.01 0.01 0.01 0.01 0.01 0.01 0.01 0.01 0.01 0.01 0.00 0.00 0.00 0.00 0.00 0.00 0.00
0.03 0.03 0.04 0.03 0.03 0.02 0.02 0.02 0.02 0.01 0.01 0.01 0.01 0.02 0.02 0.02 0.01 0.01 0.01 0.01 0.01 0.01 0.01 0.01 0.01 0.01 0.01 0.02 0.02 0.02 0.02 0.01 0.01 0.01 0.02 0.01 0.01 0.01 0.00 0.00 0.00 0.00 0.00
0.04 0.03 0.03 0.03 0.02 0.02 0.02 0.02 0.02 0.01 0.01 0.01 0.01 0.02 0.02 0.02 0.03 0.03 0.02 0.02 0.02 0.02 0.02 0.02 0.01 0.01 0.01 0.01 0.01 0.01 0.01 0.02 0.01 0.01 0.02 0.02 0.01 0.01 0.01 0.00 0.00 0.00 0.00
0.05 0.05 0.05 0.05 0.05 0.05 0.06 0.06 0.04 0.02 0.02 0.02 0.03 0.04 0.04 0.05 0.04 0.04 0.04 0.03 0.02 0.02 0.03 0.03 0.02 0.02 0.02 0.02 0.02 0.02 0.02 0.03 0.03 0.02 0.01 0.03 0.02 0.02 0.01 0.00 0.00 0.00 0.00
MSLP
1017.17 1017.50 1017.76 1017.95 1018.10 1018.21 1018.30 1018.38 1018.45 1018.49 1018.52 1018.53 1018.52 1018.52 1018.56 1018.65 1018.82 1019.09 1019.44 1019.84 1020.26 1020.67 1021.02 1021.29 1021.47 1021.58 1021.63 1021.66 1021.68 1021.73 1021.80 1021.90 1022.03 1022.16 1022.30 1022.43 1022.56 1022.69 1022.81 1022.94 1023.07 1023.19 1023.30
1017.14 1017.50 1017.79 1018.00 1018.15 1018.27 1018.36 1018.45 1018.54 1018.61 1018.68 1018.73 1018.77 1018.81 1018.86 1018.94 1019.08 1019.29 1019.57 1019.89 1020.25 1020.61 1020.93 1021.21 1021.42 1021.57 1021.67 1021.73 1021.77 1021.82 1021.88 1021.95 1022.05 1022.16 1022.29 1022.42 1022.56 1022.70 1022.84 1022.97 1023.10 1023.22 1023.32
1017.09 1017.49 1017.81 1018.05 1018.22 1018.36 1018.47 1018.56 1018.67 1018.77 1018.87 1018.96 1019.04 1019.10 1019.17 1019.24 1019.34 1019.49 1019.68 1019.92 1020.19 1020.48 1020.77 1021.04 1021.27 1021.45 1021.59 1021.68 1021.75 1021.81 1021.86 1021.92 1022.00 1022.09 1022.20 1022.33 1022.47 1022.61 1022.76 1022.90 1023.02 1023.13 1023.21
1017.01 1017.45 1017.81 1018.09 1018.30 1018.46 1018.58 1018.69 1018.80 1018.92 1019.05 1019.17 1019.28 1019.37 1019.44 1019.51 1019.57 1019.65 1019.75 1019.90 1020.08 1020.30 1020.54 1020.78 1021.01 1021.22 1021.39 1021.52 1021.62 1021.70 1021.76 1021.81 1021.88 1021.96 1022.06 1022.17 1022.31 1022.45 1022.59 1022.73 1022.85 1022.94 1023.01
1016.89 1017.36 1017.77 1018.10 1018.36 1018.54 1018.69 1018.81 1018.93 1019.05 1019.19 1019.33 1019.46 1019.57 1019.65 1019.71 1019.74 1019.76 1019.79 1019.85 1019.95 1020.09 1020.27 1020.47 1020.69 1020.91 1021.11 1021.28 1021.41 1021.52 1021.59 1021.66 1021.72 1021.80 1021.88 1021.99 1022.12 1022.25 1022.39 1022.51 1022.62 1022.70 1022.75
1016.73 1017.24 1017.69 1018.07 1018.37 1018.59 1018.76 1018.89 1019.01 1019.13 1019.27 1019.42 1019.57 1019.69 1019.79 1019.84 1019.86 1019.84 1019.82 1019.80 1019.82 1019.88 1020.00 1020.16 1020.36 1020.58 1020.80 1021.00 1021.18 1021.31 1021.42 1021.51 1021.58 1021.66 1021.75 1021.85 1021.96 1022.08 1022.20 1022.31 1022.39 1022.45 1022.49
1016.54 1017.07 1017.56 1017.99 1018.33 1018.59 1018.78 1018.92 1019.05 1019.17 1019.30 1019.46 1019.61 1019.75 1019.86 1019.92 1019.93 1019.90 1019.83 1019.77 1019.72 1019.73 1019.78 1019.91 1020.08 1020.30 1020.53 1020.76 1020.97 1021.15 1021.30 1021.41 1021.51 1021.60 1021.69 1021.78 1021.88 1021.98 1022.07 1022.15 1022.20 1022.23 1022.25
1016.34 1016.88 1017.40 1017.86 1018.24 1018.53 1018.75 1018.91 1019.04 1019.16 1019.29 1019.44 1019.61 1019.76 1019.89 1019.97 1019.99 1019.95 1019.87 1019.78 1019.69 1019.64 1019.66 1019.74 1019.89 1020.10 1020.34 1020.59 1020.84 1021.06 1021.25 1021.40 1021.53 1021.63 1021.73 1021.81 1021.89 1021.97 1022.03 1022.06 1022.08 1022.08 1022.05
1016.15 1016.68 1017.20 1017.68 1018.10 1018.43 1018.67 1018.85 1018.99 1019.12 1019.25 1019.40 1019.57 1019.73 1019.88 1019.98 1020.02 1020.00 1019.92 1019.82 1019.71 1019.64 1019.62 1019.67 1019.80 1019.99 1020.24 1020.51 1020.78 1021.04 1021.27 1021.46 1021.61 1021.74 1021.84 1021.92 1021.98 1022.02 1022.04 1022.04 1022.01 1021.96 1021.90
1015.96 1016.46 1016.98 1017.48 1017.91 1018.27 1018.55 1018.76 1018.91 1019.05 1019.18 1019.33 1019.50 1019.67 1019.83 1019.95 1020.02 1020.02 1019.97 1019.87 1019.77 1019.68 1019.64 1019.67 1019.78 1019.96 1020.20 1020.48 1020.77 1021.05 1021.31 1021.53 1021.71 1021.86 1021.96 1022.04 1022.08 1022.10 1022.08 1022.03 1021.96 1021.87 1021.76
1015.78 1016.26 1016.76 1017.25 1017.70 1018.09 1018.39 1018.62 1018.80 1018.94 1019.08 1019.23 1019.40 1019.58 1019.74 1019.88 1019.97 1020.00 1019.97 1019.90 1019.81 1019.73 1019.68 1019.70 1019.78 1019.95 1020.17 1020.45 1020.74 1021.03 1021.31 1021.56 1021.76 1021.91 1022.03 1022.10 1022.13 1022.12 1022.08 1022.00 1021.89 1021.75 1021.60
1015.62 1016.05 1016.53 1017.01 1017.47 1017.87 1018.20 1018.46 1018.65 1018.81 1018.95 1019.09 1019.25 1019.42 1019.59 1019.74 1019.85 1019.91 1019.91 1019.86 1019.80 1019.73 1019.69 1019.69 1019.77 1019.91 1020.11 1020.37 1020.65 1020.94 1021.22 1021.47 1021.68 1021.84 1021.97 1022.04 1022.07 1022.05 1021.99 1021.89 1021.76 1021.60 1021.42
1015.45 1015.85 1016.30 1016.77 1017.22 1017.64 1017.98 1018.26 1018.47 1018.63 1018.77 1018.91 1019.06 1019.21 1019.38 1019.53 1019.65 1019.73 1019.76 1019.75 1019.71 1019.67 1019.64 1019.64 1019.70 1019.82 1019.99 1020.21 1020.46 1020.73 1020.99 1021.23 1021.44 1021.62 1021.74 1021.83 1021.86 1021.85 1021.79 1021.69 1021.55 1021.39 1021.20
1015.28 1015.65 1016.07 1016.52 1016.97 1017.39 1017.75 1018.04 1018.26 1018.43 1018.56 1018.69 1018.82 1018.96 1019.11 1019.26 1019.39 1019.49 1019.55 1019.58 1019.57 1019.55 1019.54 1019.55 1019.59 1019.68 1019.82 1019.99 1020.20 1020.42 1020.65 1020.87 1021.07 1021.24 1021.37 1021.46 1021.51 1021.52 1021.48 1021.40 1021.28 1021.13 1020.95
1015.10 1015.45 1015.85 1016.29 1016.73 1017.15 1017.51 1017.80 1018.03 1018.20 1018.33 1018.44 1018.56 1018.68 1018.82 1018.96 1019.10 1019.22 1019.32 1019.37 1019.41 1019.42 1019.42 1019.43 1019.46 1019.52 1019.61 1019.74 1019.89 1020.05 1020.24 1020.42 1020.59 1020.74 1020.88 1020.98 1021.05 1021.08 1021.08 1021.03 1020.95 1020.83 1020.68
1014.91 1015.25 1015.64 1016.06 1016.49 1016.91 1017.27 1017.57 1017.79 1017.96 1018.09 1018.20 1018.30 1018.41 1018.55 1018.69 1018.84 1018.98 1019.10 1019.19 1019.26 1019.30 1019.32 1019.34 1019.35 1019.38 1019.42 1019.49 1019.58 1019.68 1019.80 1019.93 1020.07 1020.20 1020.32 1020.43 1020.51 1020.57 1020.60 1020.60 1020.56 1020.49 1020.38
1014.70 1015.03 1015.42 1015.83 1016.26 1016.67 1017.03 1017.32 1017.56 1017.73 1017.86 1017.96 1018.07 1018.18 1018.31 1018.46 1018.62 1018.78 1018.93 1019.05 1019.15 1019.21 1019.25 1019.27 1019.27 1019.27 1019.27 1019.27 1019.30 1019.33 1019.39 1019.46 1019.55 1019.64 1019.74 1019.84 1019.93 1020.00 1020.06 1020.09 1020.10 1020.07 1020.02
1014.45 1014.79 1015.17 1015.59 1016.01 1016.41 1016.77 1017.07 1017.31 1017.49 1017.63 1017.75 1017.86 1017.98 1018.12 1018.28 1018.46 1018.63 1018.80 1018.95 1019.06 1019.15 1019.19 1019.21 1019.20 1019.17 1019.12 1019.08 1019.04 1019.01 1019.00 1019.01 1019.04 1019.09 1019.15 1019.22 1019.30 1019.37 1019.44 1019.50 1019.54 1019.56 1019.56
1014.14 1014.49 1014.88 1015.30 1015.71 1016.11 1016.47 1016.78 1017.02 1017.22 1017.38 1017.52 1017.65 1017.79 1017.95 1018.12 1018.31 1018.50 1018.67 1018.83 1018.96 1019.04 1019.09 1019.10 1019.07 1019.02 1018.94 1018.86 1018.77 1018.69 1018.62 1018.57 1018.54 1018.53 1018.55 1018.58 1018.62 1018.67 1018.73 1018.79 1018.85 1018.90 1018.94
1013.76 1014.12 1014.51 1014.93 1015.35 1015.74 1016.10 1016.42 1016.68 1016.89 1017.07 1017.24 1017.39 1017.56 1017.73 1017.92 1018.11 1018.30 1018.48 1018.63 1018.75 1018.83 1018.87 1018.87 1018.82 1018.75 1018.65 1018.54 1018.42 1018.30 1018.19 1018.09 1018.01 1017.95 1017.90 1017.88 1017.88 1017.89 1017.91 1017.96 1018.01 1018.08 1018.15
1013.28 1013.65 1014.05 1014.47 1014.89 1015.29 1015.65 1015.97 1016.24 1016.48 1016.68 1016.86 1017.05 1017.23 1017.42 1017.61 1017.80 1017.99 1018.15 1018.28 1018.38 1018.44 1018.46 1018.44 1018.38 1018.30 1018.20 1018.07 1017.94 1017.81 1017.68 1017.55 1017.43 1017.32 1017.22 1017.14 1017.07 1017.03 1017.01 1017.02 1017.05 1017.12 1017.20
1012.72 1013.10 1013.51 1013.93 1014.35 1014.74 1015.11 1015.43 1015.71 1015.95 1016.17 1016.38 1016.57 1016.77 1016.96 1017.15 1017.33 1017.49 1017.63 1017.73 1017.80 1017.83 1017.83 1017.80 1017.74 1017.65 1017.56 1017.45 1017.33 1017.21 1017.07 1016.94 1016.80 1016.65 1016.51 1016.38 1016.25 1016.14 1016.07 1016.03 1016.02 1016.07 1016.15
1012.10 1012.49 1012.91 1013.34 1013.75 1014.14 1014.50 1014.82 1015.10 1015.34 1015.56 1015.77 1015.97 1016.16 1016.35 1016.52 1016.68 1016.82 1016.92 1016.99 1017.03 1017.03 1017.01 1016.97 1016.91 1016.84 1016.77 1016.70 1016.61 1016.52 1016.42 1016.29 1016.15 1016.00 1015.82 1015.64 1015.46 1015.29 1015.15 1015.06 1015.01 1015.01 1015.07
1011.48 1011.89 1012.31 1012.74 1013.15 1013.54 1013.88 1014.19 1014.45 1014.68 1014.89 1015.08 1015.26 1015.44 1015.60 1015.76 1015.89 1016.00 1016.07 1016.11 1016.12 1016.10 1016.07 1016.03 1015.99 1015.96 1015.92 1015.89 1015.86 1015.82 1015.76 1015.68 1015.55 1015.40 1015.21 1015.00 1014.77 1014.55 1014.36 1014.20 1014.09 1014.05 1014.07
1010.93 1011.35 1011.78 1012.21 1012.62 1012.99 1013.32 1013.60 1013.83 1014.03 1014.20 1014.36 1014.51 1014.66 1014.79 1014.92 1015.03 1015.10 1015.15 1015.18 1015.18 1015.16 1015.13 1015.11 1015.10 1015.10 1015.12 1015.14 1015.17 1015.19 1015.18 1015.14 1015.04 1014.90 1014.71 1014.49 1014.23 1013.97 1013.72 1013.50 1013.34 1013.24 1013.21
1010.51 1010.94 1011.39 1011.82 1012.22 1012.57 1012.87 1013.11 1013.30 1013.44 1013.57 1013.68 1013.78 1013.88 1013.99 1014.08 1014.16 1014.23 1014.27 1014.29 1014.29 1014.29 1014.28 1014.29 1014.31 1014.36 1014.43 1014.51 1014.59 1014.66 1014.70 1014.70 1014.64 1014.52 1014.33 1014.10 1013.83 1013.53 1013.24 1012.98 1012.75 1012.59 1012.49
Thickness
5741 5739 5737 5735 5735 5734 5732 5732 5732 5731 5731 5731 5733 5732 5732 5732 5732 5731 5726 5722 5720 5719 5717 5716 5715 5713 5712 5712 5711 5710 5709 5709 5708 5707 5707 5706 5705 5704 5704 5703 5702 5702 5701
5739 5737 5734 5733 5733 5732 5732 5731 5731 5730 5731 5731 5730 5730 5730 5730 5729 5728 5728 5723 5720 5718 5716 5715 5714 5713 5712 5711 5710 5709 5708 5707 5707 5706 5705 5704 5703 5703 5702 5701 5701 5700 5700
5736 5734 5734 5733 5732 5730 5728 5729 5729 5729 5730 5730 5729 5729 5729 5728 5728 5726 5726 5725 5722 5718 5716 5715 5713 5712 5711 5710 5709 5708 5707 5706 5706 5705 5704 5703 5702 5702 5701 5700 5699 5699 5698
5734 5732 5733 5732 5730 5730 5729 5729 5730 5730 5729 5730 5729 5729 5728 5726 5726 5726 5726 5724 5724 5722 5717 5715 5713 5712 5711 5710 5709 5708 5707 5706 5705 5704 5703 5702 5701 5701 5700 5699 5698 5697 5697
5732 5731 5731 5730 5728 5729 5729 5730 5729 5730 5728 5727 5728 5727 5728 5728 5726 5726 5726 5725 5723 5721 5720 5715 5714 5712 5711 5710 5709 5708 5707 5706 5705 5704 5703 5702 5701 5700 5699 5698 5697 5696 5695
5731 5731 5729 5727 5727 5728 5728 5728 5726 5726 5727 5726 5729 5727 5728 5728 5727 5727 5726 5726 5723 5722 5721 5720 5717 5715 5712 5710 5709 5708 5707 5706 5705 5704 5703 5702 5701 5700 5699 5698 5697 5696 5695
5730 5729 5729 5726 5726 5727 5727 5727 5726 5724 5726 5726 5726 5724 5726 5727 5727 5726 5726 5726 5725 5723 5721 5720 5719 5718 5715 5711 5710 5709 5707 5706 5705 5704 5703 5702 5701 5700 5699 5698 5697 5696 5695
5728 5729 5728 5727 5726 5725 5725 5724 5724 5725 5726 5726 5725 5723 5720 5722 5723 5727 5726 5725 5725 5724 5723 5721 5718 5716 5716 5715 5711 5709 5707 5706 5705 5704 5703 5702 5701 5700 5699 5697 5697 5695 5695
5727 5728 5727 5727 5725 5726 5725 5724 5723 5723 5723 5725 5726 5725 5721 5721 5724 5725 5724 5725 5723 5723 5723 5721 5719 5716 5715 5714 5712 5708 5707 5705 5704 5703 5702 5701 5700 5699 5698 5697 5696 5695 5694
5726 5725 5725 5725 5724 5726 5724 5724 5725 5724 5723 5724 5724 5724 5726 5727 5722 5722 5722 5724 5723 5721 5722 5722 5720 5717 5715 5714 5710 5708 5706 5704 5703 5702 5701 5700 5699 5698 5696 5696 5695 5694 5693
5725 5724 5724 5724 5723 5725 5724 5723 5723 5723 5725 5725 5725 5725 5724 5723 5724 5722 5720 5721 5722 5723 5722 5720 5719 5718 5715 5713 5711 5708 5705 5703 5701 5700 5699 5698 5697 5696 5695 5694 5693 5693 5692
5724 5723 5723 5723 5723 5724 5722 5722 5722 5722 5724 5724 5725 5726 5725 5724 5723 5724 5720 5718 5719 5722 5720 5719 5719 5718 5716 5714 5711 5707 5704 5701 5700 5698 5697 5696 5695 5694 5693 5692 5691 5691 5690
5723 5722 5724 5722 5722 5721 5721 5722 5721 5723 5722 5721 5721 5724 5726 5726 5727 5725 5722 5720 5719 5721 5718 5718 5718 5716 5715 5713 5710 5705 5702 5700 5698 5697 5695 5694 5693 5692 5691 5690 5689 5688 5688
5725 5723 5722 5721 5721 5721 5722 5720 5722 5721 5720 5720 5721 5721 5722 5724 5724 5723 5721 5718 5715 5717 5717 5717 5717 5715 5713 5711 5708 5703 5702 5699 5696 5695 5693 5692 5691 5690 5689 5688 5687 5686 5685
5725 5723 5721 5720 5720 5720 5720 5720 5721 5719 5719 5720 5720 5719 5720 5722 5720 5720 5720 5718 5714 5712 5713 5715 5714 5713 5709 5707 5704 5702 5701 5698 5695 5693 5691 5690 5689 5688 5687 5686 5685 5684 5683
5724 5722 5721 5720 5720 5719 5719 5719 5719 5719 5718 5718 5718 5717 5716 5719 5718 5717 5717 5716 5715 5712 5711 5716 5712 5713 5707 5706 5702 5699 5698 5696 5693 5692 5690 5688 5687 5685 5684 5684 5683 5682 5681
5723 5722 5721 5720 5720 5719 5719 5718 5720 5718 5716 5716 5716 5714 5713 5713 5714 5714 5713 5712 5710 5709 5705 5709 5710 5707 5701 5698 5699 5697 5696 5695 5696 5692 5689 5686 5684 5683 5682 5681 5680 5680 5679
5723 5723 5722 5721 5720 5719 5718 5717 5717 5717 5716 5715 5714 5712 5711 5711 5708 5709 5708 5707 5706 5705 5702 5700 5703 5702 5697 5696 5694 5692 5693 5694 5693 5691 5687 5685 5683 5681 5680 5679 5678 5677 5677
5724 5723 5722 5720 5720 5719 5718 5717 5717 5716 5715 5714 5713 5710 5709 5707 5704 5705 5702 5703 5703 5702 5698 5697 5697 5697 5695 5694 5691 5689 5690 5687 5688 5689 5686 5683 5681 5679 5678 5677 5676 5675 5674
5724 5723 5721 5720 5719 5718 5717 5716 5715 5714 5713 5712 5711 5709 5707 5705 5702 5700 5699 5697 5697 5695 5694 5691 5691 5692 5690 5690 5686 5685 5685 5686 5684 5685 5684 5682 5680 5677 5676 5675 5674 5673 5672
5725 5723 5722 5720 5719 5717 5717 5715 5713 5712 5710 5709 5708 5706 5705 5703 5701 5698 5697 5696 5693 5690 5689 5688 5687 5686 5686 5683 5681 5681 5680 5680 5681 5680 5679 5679 5678 5677 5677 5674 5672 5670 5669
5725 5723 5721 5720 5718 5718 5715 5711 5710 5710 5708 5707 5705 5704 5702 5698 5695 5691 5689 5687 5685 5684 5684 5682 5682 5680 5677 5677 5675 5673 5673 5672 5671 5676 5672 5672 5673 5673 5673 5672 5673 5669 5666
5724 5721 5720 5718 5716 5714 5711 5707 5704 5705 5706 5704 5702 5700 5699 5700 5693 5691 5685 5680 5678 5675 5673 5673 5674 5674 5673 5671 5667 5665 5664 5663 5663 5665 5663 5663 5666 5666 5668 5669 5666 5663 5661
5722 5719 5717 5716 5714 5712 5707 5703 5700 5699 5701 5700 5698 5696 5693 5692 5689 5685 5683 5681 5678 5675 5671 5666 5666 5667 5666 5664 5660 5657 5656 5656 5657 5657 5655 5653 5658 5659 5663 5662 5660 5658 5655
5718 5716 5715 5713 5711 5709 5703 5699 5695 5695 5695 5694 5693 5691 5689 5686 5682 5676 5674 5673 5672 5671 5669 5665 5662 5659 5655 5653 5650 5647 5648 5646 5648 5652 5652 5647 5650 5651 5653 5654 5655 5652 5650
5715 5713 5711 5709 5707 5704 5699 5694 5688 5690 5690 5689 5687 5685 5680 5677 5673 5668 5665 5665 5663 5663 5661 5660 5654 5651 5647 5645 5641 5637 5638 5637 5639 5640 5643 5638 5638 5638 5639 5644 5645 5645 5642